GW5324 Weather Reports


Display with metric or nautical units.
time (UTC)temp
F
wind
direction
speed
MPH
gust
MPH
rain 1hr
in
rain 24hr
in
rain mn
in
humidity
%
barometer
mb
20260902191524 59 95 3.0 7.0 0.06 0.10 0.10 86 1007.1
20260902190032 60 96 3.0 4.0 0.06 0.08 0.08 85 1007.2
20260902184533 60 184 2.0 4.0 0.07 0.07 0.07 81 1007.5
20260902183046 61 157 1.0 4.0 0.06 0.06 0.06 79 1007.7
20260902181523 62 221 2.0 7.0 0.04 0.04 0.04 80 1007.8
20260902180028 62 221 3.0 4.0 0.02 0.02 0.02 80 1007.6
20260902174527 63 69 1.0 3.0 0.00 0.00 0.00 76 1007.3
20260902173027 63 77 3.0 6.0 0.00 0.00 0.00 74 1007.2
20260902171516 64 70 2.0 6.0 0.00 0.00 0.00 72 1006.7
20260902170016 65 83 3.0 6.0 0.00 0.00 0.00 68 1006.8
20260902164523 64 93 4.0 8.0 0.00 0.00 0.00 68 1006.8
20260902163017 64 93 3.0 8.0 0.00 0.00 0.00 68 1006.9
20260902161516 64 77 3.0 8.0 0.00 0.00 0.00 69 1006.9
20260902160017 63 93 4.0 8.0 0.00 0.00 0.00 69 1007.0
20260902154520 63 120 3.0 8.0 0.00 0.00 0.00 69 1007.0
20260902153016 62 101 3.0 7.0 0.00 0.00 0.00 70 1007.3
20260902151518 62 114 3.0 5.0 0.00 0.00 0.00 70 1007.4
20260902150021 62 92 4.0 8.0 0.00 0.00 0.00 71 1007.5
20260902144518 62 123 2.0 4.0 0.00 0.00 0.00 71 1007.5
20260902143021 61 97 2.0 5.0 0.00 0.00 0.00 71 1007.9
20260902141512 61 109 2.0 7.0 0.00 0.00 0.00 72 1008.2
20260902140020 61 136 2.0 4.0 0.00 0.00 0.00 73 1008.3
20260902134524 61 83 3.0 7.0 0.00 0.00 0.00 73 1008.6
20260902133029 61 82 5.0 7.0 0.00 0.00 0.00 72 1008.8
20260902131514 61 91 3.0 4.0 0.00 0.00 0.00 72 1008.9
20260902130016 61 91 2.0 3.0 0.00 0.00 0.00 72 1008.9
20260902124523 61 80 0.0 2.0 0.00 0.00 0.00 73 1009.4
20260902123029 61 80 1.0 3.0 0.00 0.00 0.00 73 1009.6
20260902121507 61 67 2.0 6.0 0.00 0.00 0.00 73 1009.6
20260902120019 61 94 3.0 4.0 0.00 0.00 0.00 73 1009.6
20260902114521 61 103 1.0 4.0 0.00 0.00 0.00 73 1010.0
20260902113025 61 96 2.0 4.0 0.00 0.00 0.00 73 1010.1
20260902111529 61 74 2.0 3.0 0.00 0.00 0.00 73 1010.2
20260902110034 61 82 2.0 3.0 0.00 0.00 0.00 73 1010.4
20260902104532 61 98 1.0 3.0 0.00 0.00 0.00 72 1010.4
20260902103044 61 195 0.0 2.0 0.00 0.00 0.00 72 1010.5
20260902101530 61 114 0.0 2.0 0.00 0.00 0.00 72 1010.6
20260902100028 61 139 1.0 4.0 0.00 0.00 0.00 72 1010.6
20260902094515 61 167 1.0 6.0 0.00 0.00 0.00 72 1010.8
20260902093023 61 205 2.0 9.0 0.00 0.00 0.00 73 1011.1
20260902091526 61 186 3.0 8.0 0.00 0.00 0.00 73 1011.1
20260902090037 62 213 2.0 9.0 0.00 0.00 0.00 73 1011.2
20260902084537 62 156 5.0 10.0 0.00 0.00 0.00 74 1011.3
20260902083017 62 128 2.0 6.0 0.00 0.00 0.00 74 1011.3
20260902081524 62 155 2.0 6.0 0.00 0.00 0.00 73 1011.3
20260902080030 62 176 2.0 7.0 0.00 0.00 0.00 72 1011.1
20260902074532 63 171 2.0 6.0 0.00 0.00 0.00 71 1011.3
20260902073030 62 169 2.0 5.0 0.00 0.00 0.00 71 1011.4
20260902071525 62 181 3.0 5.0 0.00 0.00 0.00 71 1011.6
20260902070032 63 163 2.0 5.0 0.00 0.00 0.00 70 1011.6
20260902064531 63 157 3.0 6.0 0.00 0.00 0.00 70 1011.7
20260902063050 63 150 4.0 9.0 0.00 0.00 0.00 69 1011.8
20260902061523 63 179 4.0 6.0 0.00 0.00 0.00 69 1011.8
20260902060038 64 223 4.0 6.0 0.00 0.00 0.00 68 1011.7
20260902054534 64 209 2.0 5.0 0.00 0.00 0.00 68 1011.8
20260902053038 64 163 6.0 10.0 0.00 0.00 0.00 68 1012.0
20260902051545 64 220 7.0 10.0 0.00 0.00 0.00 67 1012.0
20260902050026 64 221 5.0 11.0 0.00 0.00 0.00 67 1011.9
20260902044505 65 202 4.0 9.0 0.00 0.00 0.00 66 1011.7
20260902043008 65 196 5.0 11.0 0.00 0.00 0.00 66 1011.8
20260902041513 65 205 5.0 13.0 0.00 0.00 0.00 66 1011.7
20260902040024 65 206 5.0 8.0 0.00 0.00 0.00 66 1011.7
20260902034533 65 225 7.0 13.0 0.00 0.00 0.00 65 1011.5
20260902033032 66 206 5.0 10.0 0.00 0.00 0.00 64 1011.3
20260902031532 66 232 8.0 13.0 0.00 0.00 0.00 64 1011.4
20260902030032 66 194 6.0 14.0 0.00 0.00 0.00 63 1011.5
20260902024524 67 221 5.0 13.0 0.00 0.00 0.00 62 1011.4
20260902023031 67 237 8.0 14.0 0.00 0.00 0.00 61 1011.3
20260902021509 68 242 5.0 10.0 0.00 0.00 0.00 61 1011.2
20260902020034 68 258 4.0 14.0 0.00 0.00 0.00 60 1011.2
20260902014523 68 210 6.0 12.0 0.00 0.00 0.00 58 1011.0
20260902013033 69 249 5.0 12.0 0.00 0.00 0.00 58 1011.1
20260902011507 68 231 4.0 11.0 0.00 0.00 0.00 59 1011.0
20260902010011 69 259 9.0 14.0 0.00 0.00 0.00 57 1010.9
20260902004535 69 258 6.0 11.0 0.00 0.00 0.00 56 1010.8
20260902003030 70 221 3.0 8.0 0.00 0.00 0.00 56 1010.7
20260902001530 70 226 7.0 11.0 0.00 0.00 0.00 57 1010.5
20260902000010 70 281 5.0 13.0 0.00 0.00 0.00 57 1010.7
20260901234532 70 223 5.0 9.0 0.00 0.00 0.00 57 1010.8
20260901233026 70 242 5.0 10.0 0.00 0.00 0.00 55 1011.0
20260901231534 69 248 7.0 12.0 0.00 0.00 0.00 58 1011.1
20260901230013 70 220 6.0 11.0 0.00 0.00 0.00 58 1010.9
20260901224514 69 251 4.0 9.0 0.00 0.00 0.00 58 1011.2
20260901223020 69 252 5.0 9.0 0.00 0.00 0.00 60 1011.2
20260901221524 69 276 7.0 11.0 0.00 0.00 0.00 59 1011.2
20260901220034 69 239 4.0 11.0 0.00 0.00 0.00 59 1011.2
20260901214536 69 273 1.0 8.0 0.00 0.00 0.00 59 1011.3
20260901213025 68 262 2.0 10.0 0.00 0.00 0.00 58 1011.4
20260901211532 68 218 6.0 10.0 0.00 0.00 0.00 60 1011.3
20260901210030 68 175 3.0 8.0 0.00 0.00 0.00 65 1011.4
20260901204533 66 228 3.0 8.0 0.00 0.00 0.00 65 1011.6
20260901203018 66 200 6.0 10.0 0.00 0.00 0.00 65 1011.7
20260901201520 67 236 6.0 8.0 0.00 0.00 0.00 63 1011.5
20260901200034 67 244 5.0 8.0 0.00 0.00 0.00 63 1011.5
20260901194508 66 196 2.0 7.0 0.00 0.00 0.00 64 1011.8
20260901193014 66 224 3.0 8.0 0.00 0.00 0.00 66 1011.9